Location: Casper
(42.8670°N, 106.3130°W)
Time: 07:20:13
(UTC-07:00)

Daily predictions for brighter satellites

Satellite Brightness Start Highest point End
(mag) Time Altitude Azimuth Time Altitude Azimuth Time Altitude Azimuth
Cosmos 1844 3.7 16:56:12 10° SSW 17:01:42 69° ESE 17:07:14 10° NNE
ISS -2.2 17:01:14 10° W 17:04:18 35° NNW 17:07:24 10° NE
Cosmos 1346 Rocket 4.3 17:02:30 10° SE 17:05:07 17° E 17:07:44 10° NE
Cosmos 1544 Rocket 3.6 17:05:44 10° N 17:10:12 64° E 17:14:37 10° SSE
IRS-1A Rocket 4.4 17:05:45 10° SSE 17:11:15 82° WSW 17:16:49 10° NNW
COSMO-SKYMED 1 4.1 17:11:34 10° NE 17:14:33 18° E 17:17:32 10° SE
Cosmos 1975 Rocket 3.6 17:11:05 10° SSW 17:15:20 60° W 17:19:39 10° N
PAYLOAD A 3.9 17:10:35 10° SSE 17:15:24 87° ENE 17:20:28 10° NNW
Cosmos 2278 Rocket 2.4 17:11:27 10° S 17:16:56 55° ESE 17:22:28 10° NNE
SMAP 3.1 17:13:45 10° SSE 17:18:19 60° ENE 17:22:54 10° N
Cosmos 375 4.5 17:17:53 10° NNW 17:22:26 57° NE 17:26:15 10° SE
CZ-3B DEB 2.0 17:19:30 10° SW 17:22:56 85° SE 17:31:37 11° NE
SL-08 R/B 4.5 17:18:36 10° N 17:25:01 78° E 17:31:16 10° SSE
Genesis I 3.4 17:21:14 10° NNW 17:25:04 49° NE 17:28:51 10° SE
SL-8 R/B 3.7 17:21:36 10° WSW 17:26:23 83° SSE 17:30:27 14° ENE
USA 234 3.3 17:22:26 10° NE 17:29:01 87° SE 17:35:34 10° SW
Cosmos 1536 Rocket 3.6 17:27:34 10° S 17:31:58 64° E 17:36:25 10° NNE
Cosmos 921 Rocket 4.0 17:34:34 10° SSE 17:38:08 26° E 17:40:21 17° NE
Cosmos 1833 Rocket 3.2 17:33:23 10° N 17:38:35 36° ENE 17:43:43 10° ESE
NOSS 3-4 (A) 4.4 17:33:09 10° NNW 17:39:19 33° NE 17:45:08 13° E
NOSS 3-4 (C) 4.4 17:33:16 10° NNW 17:39:24 33° NE 17:45:08 13° E
Cosmos 1743 3.7 17:37:10 10° NNE 17:40:29 26° ENE 17:43:45 10° SE
YAOGAN 1 2.6 17:36:27 10° SSE 17:40:46 87° WSW 17:45:08 10° NNW
Cosmos 1975 2.7 17:36:45 10° N 17:40:49 70° E 17:44:50 10° SSE
Nadezhda 3 Rocket 4.3 17:35:16 10° SSE 17:41:06 45° E 17:47:01 10° NNE
CZ-4 R/B 2.1 17:37:06 10° S 17:41:13 58° W 17:45:18 10° NNW
Cosmos 2082 Rocket 2.5 17:36:07 10° NNW 17:41:32 44° ENE 17:46:56 10° SE
Cosmos 1238 Rocket 2.7 17:39:41 10° SSW 17:42:36 59° W 17:45:42 10° N
COSMOS 2487 2.6 17:39:49 10° N 17:43:21 53° ENE 17:46:52 10° SSE
SPOT 3 Rocket 3.8 17:39:44 10° S 17:44:55 75° WSW 17:50:06 10° NNW
Cosmos 1500 3.1 17:41:19 10° N 17:45:07 61° E 17:48:56 10° SSE
NOSS 3-3 (A) 4.0 17:40:41 10° SSW 17:46:53 88° ESE 17:53:02 13° NE
MONITOR-E 4.3 17:43:49 10° SSE 17:46:56 55° ENE 17:50:05 10° N
NOSS 3-3 (C) 4.0 17:40:47 10° SSW 17:46:58 87° SE 17:53:07 13° NE
Cosmos 1484 Rocket 2.9 17:43:54 10° SE 17:47:29 45° ENE 17:51:03 10° N
MSX 3.8 17:41:48 10° SSE 17:47:33 76° ENE 17:53:18 10° N
BREEZE-M DEB (TANK) 2.8 17:47:01 10° W 17:48:58 28° NNW 17:49:44 23° NNE
Tiangong 1 1.8 17:47:34 10° SW 17:50:26 40° SSE 17:51:36 27° ESE
Meteor 1-28 Rocket 4.4 17:50:54 23° E 17:51:00 23° E 17:54:03 10° SSE
GEOS 3 Rocket 4.1 17:47:42 14° ESE 17:51:39 37° NE 17:56:19 10° NNW
CZ-2C R/B 3.0 17:47:15 10° S 17:52:13 64° W 17:57:20 10° NNW
ATLAS 2AS CENTAUR R/B 3.9 17:46:57 10° NW 17:54:43 54° WSW 18:01:57 10° S
Cosmos 1455 Rocket 4.2 17:55:02 10° NNW 17:59:16 47° W 18:03:31 10° SSW
COSMOS 2441 4.3 17:54:33 10° SSE 17:59:26 83° ENE 18:04:22 10° N
Meteor 1-13 Rocket 4.3 17:57:21 10° S 18:02:55 61° E 18:08:39 10° NNE
SKYMED 2 3.6 17:59:12 14° NNE 18:02:55 58° E 18:07:11 10° S
CZ-3A R/B 4.2 17:58:06 10° W 18:03:46 56° N 18:23:32 19° ENE
ASTRO F (AKARI) 4.4 18:02:36 15° N 18:05:04 70° WNW 18:08:12 10° SSW
IDEFIX/ARIANE 42P 3.7 18:05:06 10° S 18:10:04 45° W 18:15:04 10° NNW
Okean 1-7 Rocket 3.5 18:09:52 10° S 18:14:21 66° E 18:17:26 19° NNE
Meteor 2-4 Rocket 3.8 18:13:49 10° SSE 18:18:55 46° E 18:21:04 30° NE
Meteor 2-9 Rocket 4.3 18:13:56 10° N 18:19:09 45° ENE 18:24:15 10° SSE
OE (NEXTSAT) 4.3 18:18:05 10° WSW 18:21:41 77° NNW 18:22:02 67° NE
Abrixas 3.1 18:24:05 10° WNW 18:26:28 53° WNW 18:26:28 53° WNW
Cosmos 1934 Rocket 3.9 18:25:21 10° N 18:31:30 61° E 18:37:42 10° SSE
Cosmos 1535 Rocket 4.4 18:29:01 10° N 18:35:22 82° E 18:41:35 10° S
NOSS 2-1 (D) 3.2 18:36:57 10° SW 18:40:47 85° NW 18:40:54 83° N
Cosmos 1346 Rocket 4.5 18:37:46 10° SW 18:41:16 32° WNW 18:44:26 12° NNW
NOSS 2-1 (C) 3.2 18:37:37 10° SW 18:41:28 86° WNW 18:41:33 85° NNW
ISS -0.8 18:39:07 10° NW 18:40:27 16° NNW 18:40:27 16° NNW
Timation 1 Rocket 4.4 18:38:30 10° SSW 18:44:28 77° WNW 18:47:29 31° NNE
Meteor 2-8 Rocket 4.3 18:42:03 10° S 18:48:03 69° E 18:50:44 35° NNE
Cosmos 2297 4.2 18:43:36 10° SW 18:49:09 57° WNW 18:52:19 25° N
COSMO-SKYMED 1 3.7 18:47:46 16° N 18:50:54 42° WNW 18:54:59 10° SW
BREEZE-M R/B 3.9 18:42:55 10° WSW 18:51:57 59° NNW 18:52:57 50° NNE
NOAA 12 4.3 18:51:48 10° S 18:57:04 72° WSW 19:02:20 10° NNW
NOSS 2-1 (E) 4.0 18:56:18 10° SW 18:59:37 56° W 18:59:37 56° W
Cosmos 1821 Rocket 4.3 18:54:38 10° NNW 19:00:40 65° W 19:06:40 10° S
Cosmos 2278 Rocket 4.1 18:56:48 10° WSW 19:01:23 25° NW 19:05:32 12° N
ATLAS 3B CENTAUR R/B 4.3 18:48:37 10° WSW 19:04:24 35° SSW 19:08:44 22° SSE
Cosmos 1605 Rocket 3.8 19:04:57 10° N 19:11:17 86° E 19:17:29 10° S
USA 234 4.2 19:09:37 31° NNE 19:11:36 38° NNW 19:17:31 10° W
Cosmos 1025 Rocket 4.1 19:09:05 10° SSW 19:13:16 44° WNW 19:13:23 44° WNW
Cosmos 2056 Rocket 3.6 19:08:04 10° SSW 19:13:05 73° WSW 19:13:05 73° WSW
Cosmos 1833 Rocket 4.2 19:17:23 10° NW 19:22:27 35° WSW 19:27:29 10° SSW
Cosmos 2082 Rocket 4.1 19:20:38 10° NW 19:25:23 28° WSW 19:30:09 10° SSW
NOSS 3-4 (A) 4.0 19:23:47 10° NW 19:30:47 68° WSW 19:32:41 50° S
NOSS 3-4 (C) 4.0 19:23:53 10° NW 19:30:53 69° WSW 19:32:42 51° S
BREEZE M DEB (TANK) 4.1 19:40:36 10° WNW 19:45:25 76° SSW 19:46:07 72° SSE
CZ-3B DEB 4.2 19:53:01 10° WNW 19:59:19 43° N 19:59:54 42° N
FALCON 9 R/B 3.8 19:52:19 10° W 20:04:45 42° SSW 20:04:45 42° SSW
